Aurora, OR

1:53 AM PDT on April 28, 2017 (GMT -0700)
Aurora State

Weather History for KUAO - May, 2014

Change the Weather History Date:

Saturday, May 10, 2014

  Actual Average Record
Temperature  
Mean Temperature 53 °F -  
Max Temperature 61 °F - 83 °F (2013)
Min Temperature 46 °F - 33 °F (2012)
Degree Days  
Heating Degree Days 11    
Month to date heating degree days 93  
Since 1 July heating degree days 4420  
Cooling Degree Days 0    
Month to date cooling degree days 3  
Year to date cooling degree days 8  
Growing Degree Days 3 (Base 50)    
Moisture  
Dew Point 45 °F    
Average Humidity 73    
Maximum Humidity 93    
Minimum Humidity 53    
Precipitation  
Precipitation 0.06 in - 0.39 in (1961)
Month to date precipitation 1.46  
Year to date precipitation 20.34  
Sea Level Pressure  
Sea Level Pressure 30.19 in    
Wind  
Wind Speed 4 mph (SW)    
Max Wind Speed 14 mph    
Max Gust Speed 16 mph    
Visibility 10 miles    
Events Rain    
T = Trace of Precipitation, MM = Missing Value Source: NWS Daily Summary

Daily Weather History Graph

Daily Weather History Graph

Search for Another Location

Airport or City:

Trip Planner

Search our weather history database for the weather conditions in past years. The results will help you decide how hot, cold, wet, or windy it might be!

Date:

Astronomy

May. 10, 2014 Rise Set
Actual Time 5:47 AM PDT 8:28 PM PDT
Civil Twilight 5:13 AM PDT 9:02 PM PDT
Nautical Twilight 4:30 AM PDT 9:45 PM PDT
Astronomical Twilight 3:41 AM PDT 10:34 PM PDT
Moon 4:18 PM PDT (5/10) 3:35 AM PDT (5/10)
Length of Visible Light 15h 48m
Length of Day
14h 41m
Waxing Gibbous, 83% of the Moon is Illuminated
May 10
Waxing Gibbous
May 14
Full
May 21
Last Quarter
May 28
New
Jun 5
First Quarter

Hourly Weather History & Observations

Time (PDT) Temp. Windchill Dew Point Humidity Pressure Visibility Wind Dir Wind Speed Gust Speed Precip Events Conditions
12:53 AM 46.0 °F 41.4 °F 44.1 °F 93% 30.09 in 10.0 mi SSW 9.2 mph - 0.01 in   Mostly Cloudy
1:53 AM 46.0 °F 42.5 °F 44.1 °F 93% 30.09 in 10.0 mi SSW 6.9 mph - 0.02 in   Mostly Cloudy
2:53 AM 46.0 °F 43.1 °F 45.0 °F 96% 30.09 in 10.0 mi SSW 5.8 mph - 0.01 in   Overcast
4:53 AM 46.0 °F 42.5 °F 45.0 °F 96% 30.11 in 10.0 mi South 6.9 mph - N/A   Overcast
5:53 AM 46.0 °F 43.9 °F 44.1 °F 93% 30.13 in 10.0 mi SSW 4.6 mph - N/A   Overcast
6:53 AM 46.0 °F 43.9 °F 45.0 °F 96% 30.15 in 10.0 mi SW 4.6 mph - N/A   Overcast
7:53 AM 46.9 °F - 45.0 °F 93% 30.17 in 10.0 mi SSW 4.6 mph - N/A   Overcast
8:06 AM 48.0 °F - 45.0 °F 89% 30.16 in 10.0 mi SW 4.6 mph - N/A   Overcast
8:22 AM 48.0 °F - 46.0 °F 93% 30.17 in 10.0 mi SW 5.8 mph - N/A   Overcast
8:53 AM 48.9 °F - 46.0 °F 90% 30.18 in 10.0 mi SW 5.8 mph - N/A   Overcast
9:09 AM 48.9 °F - 46.0 °F 90% 30.18 in 10.0 mi SSW 4.6 mph - N/A   Overcast
9:53 AM 51.1 °F - 44.1 °F 77% 30.19 in 10.0 mi Variable 3.5 mph - N/A   Overcast
10:53 AM 52.0 °F - 42.1 °F 69% 30.20 in 10.0 mi SW 4.6 mph - N/A   Overcast
11:53 AM 54.0 °F - 42.1 °F 64% 30.21 in 10.0 mi SW 4.6 mph - N/A   Overcast
12:53 PM 55.9 °F - 43.0 °F 62% 30.21 in 10.0 mi SSW 4.6 mph - N/A   Overcast
1:53 PM 54.0 °F - 45.0 °F 72% 30.22 in 10.0 mi NNE 3.5 mph - 0.01 in   Overcast
2:53 PM 57.0 °F - 46.0 °F 67% 30.22 in 10.0 mi WSW 3.5 mph - N/A   Mostly Cloudy
3:53 PM 60.1 °F - 44.1 °F 55% 30.22 in 10.0 mi Calm Calm - N/A   Mostly Cloudy
4:53 PM 59.0 °F - 43.0 °F 55% 30.22 in 10.0 mi Variable 3.5 mph - N/A   Overcast
5:53 PM 59.0 °F - 44.1 °F 58% 30.23 in 10.0 mi SW 3.5 mph - N/A   Overcast
6:53 PM 59.0 °F - 44.1 °F 58% 30.23 in 10.0 mi WSW 5.8 mph - N/A   Mostly Cloudy
7:53 PM 57.0 °F - 45.0 °F 64% 30.25 in 10.0 mi Calm Calm - 0.01 in Rain Light Rain
8:53 PM 54.0 °F - 48.9 °F 83% 30.26 in 10.0 mi NE 5.8 mph - 0.01 in Rain Light Rain
9:53 PM 53.1 °F - 50.0 °F 89% 30.28 in 10.0 mi Calm Calm - 0.00 in   Overcast
10:53 PM 52.0 °F - 48.0 °F 86% 30.29 in 10.0 mi North 3.5 mph - N/A   Scattered Clouds
11:53 PM 48.0 °F - 46.0 °F 93% 30.30 in 10.0 mi West 3.5 mph - N/A   Scattered Clouds